Location: Hamilton
(37.7830°S, 175.2830°E)
Time: 20:34:19
(UTC+12:00)

ERBS - Pass Details

Date: 24 January 2019
Orbit: 419 x 429 km, 57.0° (Epoch: 21 April)

Event Time Altitude Azimuth Distance (km) Brightness Sun altitude
Rises 22:31:17 0° 211° (SSW) 2,426 7.6 -19.1°
Reaches altitude 10° 22:33:42 10° 196° (SSW) 1,554 6.0 -19.4°
Maximum altitude 22:36:32 23° 141° (SE) 988 4.2 -19.8°
Enters shadow 22:37:01 22° 128° (SE) 1,008 4.1 -19.9°
